Regional Weather Roundup
Issued by NWS

Home | Current Version | Previous Version | Graphics & Text | Print | Product List | Glossary On
Versions: 1 2 3 4 5 6 7 8 9 10 11 12 13 14 15 16 17 18 19 20 21 22 23 24 25 26 27 28 29 30 31 32 33 34 35 36 37 38 39 40 41 42 43 44 45 46 47 48 49 50
000
ASUS43 KDTX 012210
RWRMI
MICHIGAN HOURLY REGIONAL WEATHER ROUNDUP
NATIONAL WEATHER SERVICE DETROIT/PONTIAC MI
600 PM EDT SUN MAY 01 2016

NOTE: "FAIR" INDICATES FEW OR NO CLOUDS BELOW 12,000 FEET WITH NO
SIGNIFICANT WEATHER AND/OR OBSTRUCTION TO VISIBILITY.

MIZ047>049-052>055-059>063-066>070-074>076-081>083-012300-
SOUTHEAST LOWER MICHIGAN

CITY           SKY/WX    TMP DP  RH WIND       PRES   REMARKS
ADRIAN         CLOUDY    53  50  89 NE10      29.98S
ALMA           CLOUDY    48  41  76 NE17G24   30.06S
ANN ARBOR      CLOUDY    53  47  79 NE8       29.99R
BAD AXE        CLOUDY    47  38  72 NE12G20   30.05F
CARO           CLOUDY    47  39  73 NE13      30.04S
DETROIT CITY   CLOUDY    52  45  77 N12       30.00R
DETROIT        CLOUDY    53  47  79 N7        29.99S
FLINT          CLOUDY    51  44  77 NE14      30.03R
GROSSE ILE     CLOUDY    55  48  76 N9        29.97S
HILLSDALE      CLOUDY    51  50  99 NE8       29.98S FOG
HOWELL         CLOUDY    50  47  89 NE6       30.00S

CITY           SKY/WX    TMP DP  RH WIND       PRES   REMARKS
JACKSON        CLOUDY    50  47  89 N8        29.99S
LAMBERTVILLE   CLOUDY    55  51  86 E6        29.98S FOG
LANSING        CLOUDY    49  45  86 NE16      30.01S
LAPEER         CLOUDY    47  43  86 NE7       30.03S
MASON          CLOUDY    50  47  90 NE7       30.00S
MONROE         CLOUDY    55  50  86 NE3       29.98S
MT. CLEMENS    CLOUDY    51  49  93 N13       29.99R
PONTIAC        CLOUDY    48  44  86 NE12      29.99S
PORT HOPE        N/A     43  38  82 NE12      30.05S
PORT HURON     CLOUDY    46  46 100 N7        30.00F
TRI CITIES     CLOUDY    50  39  66 NE14      30.07R
MIDLAND        CLOUDY    51  36  55 NE10G25   30.07R
TROY           CLOUDY    51  47  86 N7        30.02R
SAGINAW HB     CLOUDY    48  41  76 NE14G22   30.05R
$$
MIZ043>046-050>051-056>058-064>065-071>073-077>080-012300-
SOUTHWEST LOWER MICHIGAN

CITY           SKY/WX    TMP DP  RH WIND       PRES   REMARKS
BATTLE CREEK   CLOUDY    50  47  89 NE9       30.00F
BENTON HARBOR  CLOUDY    54  48  80 E7        29.97F
BIG RAPIDS     CLOUDY    51  41  69 E9        30.05R
COLDWATER      CLOUDY    52  49  90 NE8       29.98R
FREMONT        CLOUDY    52  44  73 E9        30.03S
HOLLAND        CLOUDY    52  46  80 E9        30.01S
GRAND RAPIDS   CLOUDY    52  46  80 NE15      30.02S
IONIA          CLOUDY    47  44  87 NE14G20   30.02S
KALAMAZOO      CLOUDY    52  46  80 NE8       30.00S
LUDINGTON      CLOUDY    52  44  73 E8        30.05S
MARSHALL       CLOUDY    50  47  90 N5        29.99S
MOUNT PLEASANT CLOUDY    51  38  59 E10G20    30.05S
MUSKEGON       CLOUDY    53  44  71 NE10      30.02S
SOUTH HAVEN    CLOUDY    53  47  82 E5        29.99S
$$
MIZ016>042-012300-
NORTHERN LOWER MICHIGAN

CITY           SKY/WX    TMP DP  RH WIND       PRES   REMARKS
ALPENA         CLOUDY    54  32  43 E7        30.09S
BEAVER ISLAND  MOSUNNY   57  33  39 E8        30.10S
BELLAIRE       CLOUDY    56  37  48 E6        30.08S
CADILLAC       CLOUDY    50  38  63 E13       30.05R
CHARLEVOIX     CLOUDY    48  37  66 N8        30.11F
FRANKFORT      CLOUDY    55  42  63 E6        30.07S
GAYLORD        CLOUDY    53  34  48 E9        30.07F
GRAYLING       CLOUDY    54  36  50 E17       30.08S
HARBOR SPRINGS CLOUDY    56  31  39 E13       30.09S
HOUGHTON LAKE  PTSUNNY   54  37  52 NE14      30.06S
MANISTEE       CLOUDY    54  39  58 NE15      30.06S
OSCODA         CLOUDY    52  32  47 NE10      30.07S
PELLSTON       MOSUNNY   58  32  37 NE8       30.10S
ROGERS CITY    CLOUDY    51  35  55 CALM      30.10F
TRAVERSE CITY  CLOUDY    55  39  54 E14       30.07S
$$
MIZ007>008-015-012300-
EASTERN UPPER MICHIGAN

CITY           SKY/WX    TMP DP  RH WIND       PRES   REMARKS
KINROSS          N/A     57  30  35 N13       30.08S
MACKINAC ISLAN MOSUNNY   54  32  43 S7        30.09F
NEWBERRY       CLOUDY    56  34  44 S9        30.08F
S. S. MARIE    CLOUDY    59  31  34 NW9       30.08S
MUNISING         N/A     44  37  76 NW10      30.14S
$$
MIZ004>006-011>014-085-012300-
CENTRAL UPPER MICHIGAN

CITY           SKY/WX    TMP DP  RH WIND       PRES   REMARKS
MANISTIQUE     SUNNY     55  32  41 S5        30.10S
ESCANABA       SUNNY     54  34  47 S8        30.11S
MENOMINEE      SUNNY     55  34  44 E12       30.10S
SAWYER-GWINN   SUNNY     48  32  53 NE14G21   30.15F
$$
MIZ001>003-009>011-084-012300-
WESTERN UPPER MICHIGAN

CITY           SKY/WX    TMP DP  RH WIND       PRES   REMARKS
IRON MOUNTAIN  PTSUNNY   61  32  33 E10G18    30.07S
HOUGHTON       SUNNY     52  33  48 E8        30.15F
COPPER HARBOR    N/A     47  37  68 CALM      30.17F
IRONWOOD         N/A     50  34  53 NE12      30.12S
$$

ABBREVIATIONS USED IN REMARKS
   TC - TEMPERATURE IN CELSIUS
  WCI - WIND CHILL INDEX
   HX - HEAT INDEX
  VSB - VISIBILITY




USA.gov is the U.S. government's official web portal to all federal, state and local government web resources and services.